Location: Vernon
(50.2670°N, 119.2670°W)
Time: 10:21:30
(UTC-07:00)

ISS - Visible Passes

Search period start: 22 June 2021 00:00
Search period end: 02 July 2021 00:00
Orbit: 417 x 422 km, 51.6° (Epoch: 22 June)

Date Brightness Start Highest point End Pass type
(mag) Time Alt. Az. Time Alt. Az. Time Alt. Az.
28 Jun -1.2 03:47:20 10° SSE 03:48:27 11° SE 03:49:34 10° ESE visible
30 Jun -2.2 03:47:06 10° SSW 03:49:54 24° SE 03:52:42 10° E visible
01 Jul -1.8 03:01:16 14° SSE 03:02:36 17° SE 03:04:52 10° E visible
